QPF
0.00 0.00 0.00 0.00 0.00 0.00 0.00 0.00 0.00 0.00 0.00 0.00 0.00 0.00 0.00 0.00 0.00 0.00 0.00 0.00 0.00 0.00 0.01 0.00 0.00 0.01 0.00 0.00 0.00 0.00 0.00 0.00 0.00 0.00 0.00 0.00 0.00 0.00 0.00 0.00 0.00 0.00 0.00 0.00 0.00 0.00 0.00 0.00 0.00
0.00 0.00 0.00 0.00 0.00 0.00 0.00 0.00 0.00 0.00 0.00 0.00 0.00 0.00 0.00 0.00 0.00 0.00 0.00 0.00 0.00 0.01 0.01 0.00 0.00 0.01 0.00 0.00 0.00 0.00 0.00 0.00 0.00 0.00 0.00 0.00 0.00 0.00 0.00 0.00 0.00 0.00 0.00 0.00 0.00 0.00 0.00 0.00 0.01
0.00 0.00 0.00 0.00 0.00 0.00 0.00 0.00 0.00 0.00 0.00 0.00 0.00 0.00 0.00 0.00 0.00 0.00 0.00 0.00 0.00 0.01 0.01 0.00 0.00 0.01 0.00 0.00 0.00 0.00 0.00 0.00 0.00 0.00 0.00 0.00 0.00 0.00 0.00 0.00 0.00 0.00 0.00 0.00 0.00 0.00 0.00 0.00 0.00
0.00 0.00 0.00 0.00 0.00 0.00 0.00 0.00 0.00 0.00 0.00 0.00 0.00 0.00 0.00 0.00 0.00 0.00 0.00 0.00 0.00 0.01 0.00 0.00 0.00 0.00 0.00 0.00 0.00 0.00 0.00 0.00 0.00 0.00 0.00 0.00 0.00 0.00 0.00 0.00 0.00 0.00 0.00 0.00 0.00 0.00 0.00 0.00 0.00
0.00 0.00 0.00 0.00 0.00 0.00 0.00 0.00 0.00 0.00 0.00 0.00 0.00 0.00 0.00 0.00 0.00 0.00 0.00 0.00 0.01 0.00 0.00 0.00 0.00 0.00 0.00 0.00 0.00 0.00 0.00 0.00 0.00 0.00 0.00 0.00 0.00 0.00 0.00 0.00 0.00 0.00 0.00 0.00 0.00 0.00 0.00 0.00 0.00
0.00 0.00 0.00 0.00 0.00 0.00 0.00 0.00 0.00 0.00 0.00 0.00 0.00 0.00 0.00 0.00 0.00 0.00 0.00 0.00 0.01 0.00 0.00 0.00 0.00 0.00 0.00 0.00 0.00 0.00 0.00 0.00 0.00 0.00 0.00 0.00 0.00 0.00 0.00 0.00 0.00 0.01 0.00 0.00 0.00 0.00 0.00 0.00 0.00
0.00 0.00 0.00 0.00 0.00 0.00 0.00 0.00 0.00 0.00 0.00 0.00 0.00 0.00 0.00 0.00 0.00 0.00 0.00 0.00 0.00 0.00 0.00 0.00 0.00 0.00 0.00 0.00 0.00 0.00 0.00 0.00 0.00 0.00 0.00 0.00 0.00 0.00 0.00 0.00 0.00 0.00 0.01 0.01 0.02 0.01 0.01 0.01 0.01
0.00 0.00 0.00 0.00 0.00 0.00 0.00 0.00 0.00 0.00 0.00 0.00 0.00 0.00 0.00 0.00 0.00 0.00 0.00 0.00 0.00 0.00 0.00 0.00 0.00 0.00 0.00 0.00 0.00 0.00 0.00 0.00 0.00 0.00 0.00 0.00 0.00 0.00 0.00 0.00 0.00 0.00 0.00 0.00 0.01 0.01 0.01 0.02 0.03
0.00 0.00 0.00 0.00 0.00 0.00 0.00 0.00 0.00 0.00 0.00 0.00 0.00 0.00 0.00 0.00 0.00 0.00 0.00 0.00 0.00 0.00 0.00 0.00 0.00 0.00 0.00 0.00 0.00 0.00 0.00 0.00 0.00 0.00 0.00 0.00 0.00 0.00 0.00 0.00 0.00 0.00 0.00 0.00 0.00 0.00 0.00 0.00 0.00
0.00 0.00 0.00 0.00 0.00 0.00 0.00 0.00 0.00 0.00 0.00 0.00 0.00 0.00 0.00 0.00 0.00 0.00 0.00 0.00 0.00 0.00 0.00 0.00 0.00 0.00 0.00 0.00 0.00 0.00 0.00 0.00 0.00 0.00 0.00 0.00 0.00 0.00 0.00 0.00 0.00 0.00 0.00 0.00 0.00 0.00 0.00 0.00 0.00
0.00 0.00 0.00 0.00 0.00 0.00 0.00 0.00 0.00 0.00 0.00 0.00 0.00 0.00 0.00 0.00 0.00 0.00 0.00 0.00 0.00 0.00 0.00 0.00 0.00 0.00 0.00 0.00 0.00 0.00 0.00 0.00 0.00 0.00 0.00 0.00 0.00 0.00 0.00 0.00 0.00 0.00 0.00 0.00 0.00 0.00 0.00 0.00 0.00
0.00 0.00 0.00 0.00 0.00 0.00 0.00 0.00 0.00 0.00 0.00 0.00 0.00 0.00 0.00 0.00 0.00 0.00 0.00 0.00 0.00 0.00 0.00 0.00 0.00 0.00 0.00 0.00 0.00 0.00 0.00 0.00 0.00 0.00 0.00 0.00 0.00 0.00 0.00 0.00 0.00 0.00 0.00 0.00 0.00 0.00 0.00 0.00 0.00
0.00 0.00 0.00 0.00 0.00 0.00 0.00 0.00 0.00 0.00 0.00 0.00 0.00 0.00 0.00 0.00 0.00 0.00 0.00 0.00 0.00 0.00 0.00 0.00 0.00 0.00 0.00 0.00 0.00 0.00 0.00 0.00 0.00 0.00 0.00 0.00 0.00 0.00 0.00 0.00 0.00 0.00 0.00 0.00 0.00 0.00 0.00 0.00 0.00
0.00 0.00 0.00 0.00 0.00 0.00 0.00 0.00 0.00 0.00 0.00 0.00 0.00 0.00 0.00 0.00 0.00 0.00 0.00 0.00 0.00 0.00 0.00 0.00 0.00 0.00 0.00 0.00 0.00 0.00 0.00 0.00 0.00 0.00 0.00 0.00 0.00 0.00 0.00 0.00 0.00 0.00 0.00 0.00 0.00 0.00 0.00 0.00 0.00
0.00 0.00 0.00 0.00 0.00 0.00 0.00 0.00 0.00 0.00 0.00 0.00 0.00 0.00 0.00 0.00 0.00 0.00 0.00 0.00 0.00 0.00 0.00 0.00 0.00 0.00 0.00 0.00 0.00 0.00 0.00 0.00 0.00 0.00 0.00 0.00 0.00 0.00 0.00 0.00 0.00 0.00 0.00 0.00 0.00 0.00 0.00 0.00 0.00
0.00 0.00 0.00 0.00 0.00 0.00 0.00 0.00 0.00 0.00 0.00 0.00 0.00 0.00 0.00 0.00 0.00 0.00 0.00 0.00 0.00 0.00 0.00 0.00 0.00 0.00 0.00 0.00 0.00 0.00 0.00 0.00 0.00 0.00 0.00 0.00 0.00 0.00 0.00 0.00 0.00 0.00 0.00 0.00 0.00 0.00 0.00 0.00 0.00
0.00 0.00 0.00 0.00 0.00 0.00 0.00 0.00 0.00 0.00 0.00 0.00 0.00 0.00 0.00 0.00 0.00 0.00 0.00 0.00 0.00 0.00 0.00 0.00 0.00 0.00 0.00 0.00 0.00 0.00 0.00 0.00 0.00 0.00 0.00 0.00 0.00 0.00 0.00 0.00 0.00 0.00 0.00 0.00 0.00 0.00 0.00 0.00 0.00
0.00 0.00 0.00 0.00 0.00 0.00 0.00 0.00 0.00 0.00 0.00 0.00 0.00 0.00 0.00 0.00 0.00 0.00 0.00 0.00 0.00 0.00 0.00 0.00 0.00 0.00 0.00 0.00 0.00 0.00 0.00 0.00 0.00 0.00 0.00 0.00 0.00 0.00 0.00 0.00 0.00 0.00 0.00 0.00 0.00 0.00 0.00 0.00 0.00
0.00 0.00 0.00 0.00 0.00 0.00 0.00 0.00 0.00 0.00 0.00 0.00 0.00 0.00 0.00 0.00 0.00 0.00 0.00 0.00 0.00 0.00 0.00 0.00 0.00 0.00 0.00 0.00 0.00 0.00 0.00 0.00 0.00 0.00 0.00 0.00 0.00 0.00 0.00 0.00 0.00 0.00 0.00 0.00 0.00 0.00 0.00 0.00 0.00
0.00 0.00 0.00 0.00 0.00 0.00 0.00 0.00 0.00 0.00 0.00 0.00 0.00 0.00 0.00 0.00 0.00 0.00 0.00 0.00 0.00 0.00 0.00 0.00 0.00 0.00 0.00 0.00 0.00 0.00 0.00 0.00 0.00 0.00 0.00 0.00 0.00 0.00 0.00 0.00 0.00 0.00 0.00 0.00 0.00 0.00 0.00 0.00 0.00
0.00 0.00 0.00 0.00 0.00 0.00 0.00 0.00 0.00 0.00 0.00 0.00 0.00 0.00 0.00 0.00 0.00 0.00 0.00 0.00 0.00 0.00 0.00 0.00 0.00 0.00 0.00 0.00 0.00 0.00 0.00 0.00 0.00 0.00 0.00 0.00 0.00 0.00 0.00 0.00 0.00 0.00 0.00 0.00 0.00 0.00 0.00 0.00 0.00
0.00 0.00 0.00 0.00 0.00 0.00 0.00 0.00 0.00 0.00 0.00 0.00 0.00 0.00 0.00 0.00 0.00 0.00 0.00 0.00 0.00 0.00 0.00 0.00 0.00 0.00 0.00 0.00 0.00 0.00 0.00 0.00 0.00 0.00 0.00 0.00 0.00 0.00 0.00 0.00 0.00 0.00 0.00 0.00 0.00 0.00 0.00 0.00 0.00
0.00 0.00 0.00 0.00 0.00 0.00 0.00 0.00 0.00 0.00 0.00 0.00 0.00 0.00 0.00 0.00 0.00 0.00 0.00 0.00 0.00 0.00 0.00 0.00 0.00 0.00 0.00 0.00 0.00 0.00 0.00 0.00 0.00 0.00 0.00 0.00 0.00 0.00 0.00 0.00 0.00 0.00 0.00 0.00 0.00 0.00 0.00 0.00 0.00
0.00 0.00 0.00 0.00 0.00 0.00 0.00 0.00 0.00 0.00 0.00 0.00 0.00 0.00 0.00 0.00 0.00 0.00 0.00 0.00 0.00 0.00 0.00 0.00 0.00 0.00 0.00 0.00 0.00 0.00 0.00 0.00 0.00 0.00 0.00 0.00 0.00 0.00 0.00 0.00 0.00 0.00 0.00 0.00 0.00 0.00 0.00 0.00 0.00
0.00 0.00 0.00 0.00 0.00 0.00 0.00 0.00 0.00 0.00 0.00 0.00 0.00 0.00 0.00 0.00 0.00 0.00 0.00 0.00 0.00 0.00 0.00 0.00 0.00 0.00 0.00 0.00 0.00 0.00 0.00 0.00 0.00 0.00 0.00 0.00 0.00 0.00 0.00 0.00 0.00 0.00 0.00 0.00 0.00 0.00 0.00 0.00 0.00
0.00 0.00 0.00 0.00 0.00 0.00 0.00 0.00 0.00 0.00 0.00 0.00 0.00 0.00 0.00 0.00 0.00 0.00 0.00 0.00 0.00 0.00 0.00 0.00 0.00 0.00 0.00 0.00 0.00 0.00 0.00 0.00 0.00 0.00 0.00 0.00 0.00 0.00 0.00 0.00 0.00 0.00 0.00 0.00 0.00 0.00 0.00 0.00 0.00
0.00 0.00 0.00 0.00 0.00 0.00 0.00 0.00 0.00 0.00 0.00 0.00 0.00 0.00 0.00 0.00 0.00 0.00 0.00 0.00 0.00 0.00 0.00 0.00 0.00 0.00 0.00 0.00 0.00 0.00 0.00 0.00 0.00 0.00 0.00 0.00 0.00 0.00 0.00 0.00 0.00 0.00 0.00 0.00 0.00 0.00 0.00 0.00 0.00
0.00 0.00 0.00 0.00 0.00 0.00 0.00 0.00 0.00 0.00 0.00 0.00 0.00 0.00 0.00 0.00 0.00 0.00 0.00 0.00 0.00 0.00 0.00 0.00 0.00 0.00 0.00 0.00 0.00 0.00 0.00 0.00 0.00 0.00 0.00 0.00 0.00 0.00 0.00 0.00 0.00 0.00 0.00 0.00 0.00 0.00 0.00 0.00 0.00
0.00 0.00 0.00 0.00 0.00 0.00 0.00 0.00 0.00 0.00 0.00 0.00 0.00 0.00 0.00 0.00 0.00 0.00 0.00 0.00 0.00 0.00 0.00 0.00 0.00 0.00 0.00 0.00 0.00 0.00 0.00 0.00 0.00 0.00 0.00 0.00 0.00 0.00 0.00 0.00 0.00 0.00 0.00 0.00 0.00 0.00 0.00 0.00 0.00
0.00 0.00 0.00 0.00 0.00 0.00 0.00 0.00 0.00 0.00 0.00 0.00 0.00 0.00 0.00 0.00 0.00 0.00 0.00 0.00 0.00 0.00 0.00 0.00 0.00 0.00 0.00 0.00 0.00 0.00 0.00 0.00 0.00 0.00 0.00 0.00 0.00 0.00 0.00 0.00 0.00 0.00 0.00 0.00 0.00 0.00 0.00 0.00 0.00
MSLP
1013.43 1013.40 1013.65 1014.09 1015.57 1015.97 1015.31 1014.08 1012.70 1011.77 1010.85 1009.89 1009.81 1010.01 1010.42 1011.01 1011.03 1011.78 1011.19 1010.99 1011.18 1011.53 1011.80 1011.95 1012.28 1012.54 1012.74 1012.92 1013.11 1013.31 1013.43 1013.59 1013.70 1013.78 1013.87 1013.96 1014.04 1014.12 1014.19 1014.21 1014.35 1014.37 1014.38 1014.45 1014.41 1014.47 1014.52 1014.50 1014.72
1013.38 1013.48 1014.08 1015.02 1015.83 1016.00 1014.92 1013.35 1012.32 1011.23 1010.23 1010.10 1010.18 1010.55 1010.83 1011.30 1011.21 1011.29 1011.29 1010.98 1011.03 1011.39 1011.91 1012.17 1012.41 1012.72 1012.97 1013.18 1013.29 1013.51 1013.61 1013.74 1013.90 1013.95 1014.07 1014.13 1014.18 1014.38 1014.36 1014.49 1014.54 1014.66 1014.59 1014.62 1014.61 1014.69 1014.79 1014.81 1014.80
1013.33 1013.49 1014.54 1015.25 1015.46 1014.95 1014.21 1012.56 1011.53 1010.58 1010.14 1010.16 1010.72 1010.97 1011.13 1011.38 1011.38 1011.43 1011.32 1011.17 1011.18 1011.59 1012.10 1012.41 1012.60 1012.88 1013.13 1013.34 1013.53 1013.69 1013.82 1013.95 1014.02 1014.16 1014.28 1014.34 1014.43 1014.61 1014.71 1014.63 1014.78 1014.81 1014.83 1014.85 1014.77 1014.68 1014.76 1014.91 1014.93
1013.56 1014.20 1015.14 1015.19 1014.71 1013.84 1013.00 1011.88 1010.95 1010.45 1010.17 1010.18 1010.50 1011.39 1011.35 1011.20 1011.32 1011.42 1011.58 1011.52 1011.55 1012.00 1012.26 1012.76 1012.79 1013.04 1013.28 1013.53 1013.74 1013.91 1014.02 1014.14 1014.23 1014.31 1014.45 1014.55 1014.61 1014.71 1014.83 1014.84 1014.87 1014.91 1015.00 1014.95 1014.95 1015.00 1014.98 1015.07 1015.00
1013.75 1014.58 1015.23 1015.07 1014.05 1013.16 1012.28 1011.55 1011.27 1010.89 1010.58 1010.35 1010.38 1011.29 1011.56 1011.55 1011.48 1011.72 1012.09 1011.86 1011.98 1012.39 1012.62 1012.90 1013.24 1013.33 1013.55 1013.77 1013.98 1014.11 1014.22 1014.36 1014.50 1014.52 1014.60 1014.71 1014.79 1014.88 1014.93 1014.97 1015.02 1015.02 1015.09 1015.11 1015.10 1015.06 1015.02 1015.10 1015.12
1014.23 1014.71 1015.18 1014.46 1013.58 1012.70 1011.91 1011.09 1011.07 1010.75 1010.41 1010.50 1010.68 1011.44 1011.90 1011.83 1011.95 1012.14 1012.26 1012.31 1012.67 1012.85 1013.12 1013.20 1013.55 1013.84 1013.86 1014.08 1014.25 1014.40 1014.56 1014.72 1014.83 1014.87 1014.91 1015.05 1015.17 1015.25 1015.31 1015.28 1015.29 1015.20 1015.18 1015.12 1015.11 1015.10 1015.06 1015.04 1015.11
1013.98 1014.55 1014.46 1013.90 1013.13 1012.60 1011.11 1010.47 1010.49 1010.14 1009.95 1010.06 1010.36 1011.72 1012.20 1012.22 1012.33 1012.47 1012.59 1012.82 1013.16 1013.14 1013.48 1013.89 1013.87 1014.31 1014.37 1014.50 1014.69 1014.86 1014.97 1015.07 1015.20 1015.29 1015.38 1015.50 1015.62 1015.69 1015.76 1015.82 1015.71 1015.55 1015.50 1015.28 1015.25 1015.17 1015.16 1015.07 1014.99
1013.78 1014.02 1013.96 1013.20 1012.58 1011.61 1010.46 1010.06 1009.81 1009.81 1009.26 1009.63 1009.93 1011.18 1012.06 1011.93 1012.43 1012.74 1013.07 1013.31 1013.50 1013.64 1013.91 1014.33 1014.51 1014.71 1014.98 1015.12 1015.16 1015.27 1015.40 1015.50 1015.59 1015.71 1015.86 1015.94 1016.00 1016.10 1016.18 1016.22 1016.15 1016.08 1016.00 1015.86 1015.64 1015.48 1015.30 1015.11 1015.00
1013.32 1013.78 1013.06 1012.18 1011.93 1010.92 1010.25 1009.97 1009.58 1009.47 1009.59 1009.81 1010.19 1010.64 1010.57 1011.30 1012.48 1013.17 1013.68 1013.92 1014.00 1014.23 1014.45 1014.64 1014.90 1015.12 1015.25 1015.43 1015.54 1015.63 1015.77 1015.93 1016.11 1016.29 1016.42 1016.48 1016.58 1016.60 1016.58 1016.57 1016.47 1016.40 1016.30 1016.23 1016.03 1015.90 1015.65 1015.50 1015.14
1013.02 1012.93 1011.86 1011.25 1011.07 1010.68 1010.35 1010.18 1009.92 1009.84 1010.05 1010.21 1010.55 1011.03 1010.92 1011.55 1012.45 1013.09 1013.62 1013.95 1014.28 1014.59 1014.85 1014.95 1015.14 1015.37 1015.45 1015.62 1015.92 1016.05 1016.22 1016.38 1016.56 1016.73 1016.81 1016.90 1016.98 1016.98 1016.93 1016.93 1016.88 1016.86 1016.73 1016.61 1016.33 1016.15 1015.95 1015.78 1015.56
1012.46 1011.79 1011.43 1011.04 1010.69 1010.59 1010.44 1010.35 1010.25 1010.21 1010.38 1010.23 1010.32 1010.91 1011.41 1011.81 1012.66 1013.11 1013.51 1013.74 1014.00 1014.52 1014.96 1015.18 1015.36 1015.53 1015.70 1016.02 1016.28 1016.45 1016.62 1016.75 1016.86 1016.99 1017.06 1017.10 1017.12 1017.18 1017.19 1017.16 1017.19 1017.19 1017.00 1016.92 1016.66 1016.44 1016.23 1016.06 1015.84
1012.32 1011.50 1011.31 1011.00 1010.67 1010.75 1010.64 1010.49 1010.41 1010.43 1010.25 1010.22 1010.35 1010.81 1011.22 1011.95 1012.38 1012.70 1013.18 1013.65 1014.22 1014.68 1014.99 1015.23 1015.50 1015.72 1016.07 1016.32 1016.55 1016.73 1016.91 1017.12 1017.28 1017.34 1017.31 1017.33 1017.48 1017.51 1017.51 1017.50 1017.46 1017.45 1017.31 1017.23 1017.04 1016.74 1016.43 1016.10 1015.84
1012.09 1011.55 1011.18 1010.99 1010.95 1010.90 1010.73 1010.69 1010.70 1010.48 1010.31 1010.43 1010.73 1011.23 1011.49 1011.76 1012.07 1012.59 1012.83 1013.51 1014.11 1014.60 1014.97 1015.26 1015.58 1015.92 1016.20 1016.52 1016.79 1016.98 1017.20 1017.40 1017.59 1017.68 1017.63 1017.63 1017.80 1017.86 1017.76 1017.67 1017.65 1017.52 1017.29 1017.17 1017.02 1016.86 1016.60 1016.23 1015.84
1011.54 1011.36 1011.22 1011.12 1011.09 1011.03 1011.15 1010.96 1010.99 1010.27 1010.28 1010.97 1011.23 1011.55 1011.70 1011.74 1011.98 1012.63 1013.09 1013.53 1014.06 1014.40 1014.82 1015.20 1015.61 1015.83 1016.09 1016.60 1016.82 1017.19 1017.43 1017.65 1017.77 1017.91 1018.03 1018.01 1018.07 1018.11 1017.97 1017.89 1017.77 1017.63 1017.53 1017.32 1017.14 1017.00 1016.71 1016.31 1015.84
1011.56 1011.64 1011.41 1011.22 1011.22 1011.30 1011.41 1011.08 1010.47 1010.33 1010.63 1011.00 1011.40 1011.48 1011.66 1011.65 1011.86 1012.17 1012.39 1013.04 1013.44 1014.12 1014.62 1015.16 1015.54 1015.80 1016.12 1016.62 1016.93 1017.31 1017.56 1017.75 1018.00 1018.22 1018.22 1018.20 1018.20 1018.21 1018.29 1018.20 1018.05 1017.90 1017.63 1017.30 1017.15 1016.95 1016.63 1016.26 1015.78
1011.99 1011.97 1012.04 1011.10 1011.25 1011.26 1011.51 1009.61 1010.02 1009.98 1010.82 1011.14 1011.08 1011.23 1011.33 1011.45 1011.57 1011.71 1012.14 1012.58 1013.22 1013.98 1014.67 1015.11 1015.43 1015.80 1016.20 1016.64 1017.02 1017.39 1017.76 1018.03 1018.22 1018.28 1018.24 1018.28 1018.30 1018.30 1018.30 1018.18 1018.11 1017.82 1017.56 1017.38 1017.25 1017.12 1016.86 1016.49 1015.94
1012.57 1012.31 1012.04 1011.78 1011.34 1011.45 1011.73 1010.12 1009.87 1010.32 1010.96 1010.82 1011.24 1011.15 1011.22 1011.30 1011.54 1011.67 1012.00 1012.39 1012.92 1013.58 1014.44 1015.04 1015.35 1015.76 1016.25 1016.69 1017.10 1017.47 1017.81 1018.11 1018.28 1018.20 1018.23 1018.32 1018.34 1018.30 1018.33 1018.28 1018.10 1017.80 1017.56 1017.47 1017.42 1017.17 1017.02 1016.52 1015.84
1012.56 1012.78 1012.41 1012.19 1011.78 1011.97 1011.89 1010.41 1010.18 1010.37 1010.76 1010.86 1011.13 1010.98 1010.97 1011.13 1010.94 1011.31 1011.82 1012.33 1012.93 1013.54 1014.14 1014.80 1015.37 1015.84 1016.28 1016.80 1017.27 1017.73 1018.04 1018.22 1018.27 1018.22 1018.21 1018.32 1018.44 1018.41 1018.44 1018.20 1017.95 1017.74 1017.69 1017.52 1017.35 1017.20 1016.91 1016.56 1015.97
1012.74 1012.73 1012.70 1012.17 1011.84 1012.05 1011.85 1010.83 1010.26 1010.05 1010.38 1010.28 1010.40 1010.67 1010.57 1010.47 1010.65 1011.23 1011.74 1012.26 1013.07 1013.82 1014.37 1014.85 1015.42 1015.91 1016.27 1016.89 1017.52 1018.00 1018.22 1018.34 1018.25 1018.20 1018.21 1018.33 1018.45 1018.41 1018.27 1018.17 1018.10 1017.99 1017.87 1017.68 1017.44 1017.13 1016.81 1016.37 1015.92
1013.29 1013.25 1012.86 1012.37 1012.16 1012.46 1011.83 1010.77 1009.73 1009.34 1008.99 1008.75 1008.97 1009.51 1009.69 1010.16 1010.53 1011.09 1011.77 1012.47 1012.82 1013.40 1014.15 1014.82 1015.25 1015.77 1016.24 1016.66 1017.33 1017.66 1018.05 1018.26 1018.22 1018.26 1018.33 1018.30 1018.39 1018.43 1018.35 1018.36 1018.26 1018.08 1017.88 1017.65 1017.40 1017.14 1016.81 1016.47 1016.09
1013.15 1013.20 1013.06 1012.99 1012.76 1012.66 1012.42 1010.59 1009.03 1007.61 1007.45 1007.45 1007.52 1007.68 1008.34 1008.78 1009.70 1010.65 1011.58 1012.11 1012.77 1013.32 1013.80 1014.47 1015.13 1015.63 1016.10 1016.53 1017.18 1017.67 1017.98 1018.13 1018.20 1018.45 1018.52 1018.51 1018.53 1018.50 1018.42 1018.29 1018.15 1018.02 1017.86 1017.67 1017.40 1017.02 1016.60 1016.27 1016.00
1013.22 1012.50 1012.78 1013.25 1013.84 1013.79 1012.94 1011.24 1008.71 1007.46 1006.85 1006.65 1006.43 1006.97 1007.19 1007.83 1008.68 1009.68 1010.77 1011.68 1012.20 1012.87 1013.60 1014.29 1015.00 1015.49 1016.02 1016.47 1017.02 1017.53 1018.02 1018.51 1018.73 1018.83 1018.76 1018.68 1018.55 1018.48 1018.39 1018.24 1018.07 1017.98 1017.90 1017.72 1017.41 1016.94 1016.65 1016.36 1015.92
1012.63 1012.41 1013.11 1013.72 1014.25 1014.23 1013.65 1013.18 1008.17 1007.35 1006.48 1005.54 1005.11 1005.65 1006.41 1006.88 1007.63 1008.60 1009.73 1010.68 1011.72 1012.64 1013.38 1014.31 1014.93 1015.53 1016.02 1016.42 1016.82 1017.41 1017.89 1018.32 1018.56 1018.76 1018.82 1018.83 1018.70 1018.61 1018.37 1018.14 1018.04 1018.02 1017.82 1017.51 1017.19 1016.87 1016.64 1016.35 1016.05
1012.50 1013.03 1013.94 1014.81 1015.30 1014.96 1013.49 1012.81 1008.03 1006.78 1005.24 1004.32 1004.30 1005.03 1005.65 1006.43 1007.21 1008.19 1009.32 1010.60 1011.77 1012.65 1013.46 1014.24 1014.84 1015.46 1015.95 1016.45 1016.82 1017.20 1017.63 1018.16 1018.59 1018.84 1019.02 1018.81 1018.68 1018.46 1018.23 1018.09 1018.03 1017.81 1017.53 1017.19 1016.96 1016.72 1016.51 1016.28 1015.97
1012.96 1013.81 1014.95 1016.19 1016.64 1014.87 1013.33 1012.26 1007.84 1005.14 1004.19 1004.01 1004.30 1004.78 1005.49 1006.29 1007.07 1008.00 1009.13 1010.40 1011.61 1012.59 1013.41 1014.04 1014.68 1015.41 1015.88 1016.26 1016.74 1017.10 1017.48 1017.96 1018.44 1018.78 1018.84 1018.75 1018.54 1018.32 1018.32 1018.23 1017.87 1017.52 1017.19 1017.00 1016.76 1016.56 1016.37 1016.17 1015.97
1013.21 1013.32 1014.76 1015.66 1016.21 1015.24 1013.74 1010.72 1006.43 1003.95 1003.64 1003.57 1003.98 1004.58 1005.36 1006.40 1006.98 1007.64 1008.59 1009.75 1010.99 1012.09 1013.10 1013.73 1014.52 1015.22 1015.75 1016.15 1016.66 1016.93 1017.28 1017.78 1018.20 1018.46 1018.55 1018.59 1018.58 1018.52 1018.34 1017.81 1017.45 1017.21 1016.94 1016.73 1016.54 1016.32 1016.09 1015.84 1015.53
1013.46 1013.86 1013.68 1015.24 1016.36 1015.84 1012.49 1009.28 1006.26 1003.67 1003.43 1003.76 1004.09 1004.70 1005.38 1006.14 1006.88 1007.62 1008.58 1009.39 1010.56 1011.63 1012.49 1013.20 1014.17 1014.89 1015.42 1015.88 1016.32 1016.86 1017.19 1017.57 1018.01 1018.18 1018.33 1018.44 1018.45 1018.30 1017.83 1017.57 1017.27 1017.02 1016.73 1016.58 1016.37 1016.10 1015.81 1015.46 1015.08
1013.38 1013.25 1014.23 1016.07 1016.57 1015.22 1011.83 1009.48 1006.40 1004.33 1003.46 1003.71 1004.10 1004.76 1005.49 1006.14 1006.96 1007.60 1008.37 1009.21 1010.18 1011.10 1012.07 1013.04 1013.90 1014.48 1015.03 1015.71 1016.06 1016.63 1017.00 1017.38 1017.69 1018.00 1018.24 1018.27 1018.24 1018.05 1017.71 1017.39 1017.10 1016.82 1016.60 1016.34 1016.09 1015.73 1015.30 1014.92 1014.54
1013.54 1013.62 1013.95 1014.60 1015.47 1014.32 1012.13 1007.87 1005.09 1004.07 1003.81 1004.12 1004.39 1004.88 1005.51 1006.13 1006.84 1007.51 1008.29 1009.16 1009.97 1011.02 1011.89 1012.87 1013.80 1014.35 1015.06 1015.58 1015.91 1016.44 1016.93 1017.24 1017.57 1017.87 1017.96 1018.03 1018.12 1017.94 1017.62 1017.28 1016.95 1016.64 1016.26 1015.95 1015.64 1015.26 1014.86 1014.53 1014.09
1012.36 1012.43 1012.64 1013.49 1014.00 1013.39 1012.20 1007.19 1004.98 1004.32 1004.31 1004.37 1004.58 1004.89 1005.47 1006.18 1006.75 1007.45 1008.24 1009.14 1010.08 1010.92 1011.84 1012.69 1013.49 1014.02 1014.67 1015.10 1015.57 1016.13 1016.69 1017.09 1017.51 1017.72 1017.76 1017.97 1017.98 1017.77 1017.49 1017.15 1016.76 1016.39 1015.96 1015.65 1015.30 1014.86 1014.39 1013.91 1013.45
Thickness
5656 5657 5657 5651 5627 5621 5625 5641 5660 5663 5677 5694 5695 5692 5686 5680 5682 5668 5699 5704 5704 5703 5701 5700 5698 5698 5697 5698 5698 5697 5698 5697 5697 5698 5698 5698 5698 5698 5699 5701 5701 5701 5701 5702 5704 5703 5703 5705 5703
5651 5652 5646 5631 5615 5612 5623 5646 5655 5664 5681 5684 5685 5683 5679 5671 5683 5684 5689 5699 5700 5697 5696 5695 5694 5692 5692 5692 5693 5693 5693 5693 5692 5693 5693 5693 5694 5693 5695 5695 5696 5695 5696 5697 5698 5698 5698 5699 5700
5646 5647 5633 5621 5614 5620 5628 5648 5660 5675 5676 5680 5674 5676 5675 5670 5679 5680 5687 5693 5695 5692 5689 5689 5689 5688 5687 5687 5687 5687 5688 5688 5688 5687 5687 5688 5688 5688 5688 5691 5689 5689 5690 5690 5692 5693 5693 5692 5693
5637 5632 5622 5614 5623 5635 5644 5651 5665 5668 5675 5677 5673 5661 5672 5678 5675 5679 5680 5684 5687 5685 5683 5680 5683 5683 5683 5682 5682 5681 5682 5682 5683 5683 5683 5683 5684 5684 5684 5684 5685 5686 5685 5687 5686 5686 5687 5686 5688
5629 5620 5608 5611 5626 5641 5644 5649 5653 5658 5663 5669 5671 5656 5660 5669 5673 5672 5670 5675 5678 5677 5676 5676 5674 5677 5677 5677 5676 5676 5677 5677 5677 5678 5678 5678 5678 5678 5679 5679 5680 5680 5680 5680 5680 5681 5682 5681 5682
5614 5613 5600 5617 5626 5638 5638 5649 5648 5654 5660 5664 5658 5650 5654 5663 5662 5662 5663 5666 5667 5670 5669 5671 5669 5668 5670 5670 5670 5670 5670 5670 5670 5670 5670 5670 5671 5672 5672 5673 5673 5674 5675 5676 5676 5676 5676 5676 5675
5610 5603 5603 5615 5624 5623 5643 5652 5647 5651 5656 5659 5661 5643 5648 5651 5653 5654 5657 5659 5660 5663 5664 5662 5664 5660 5662 5663 5663 5662 5663 5663 5663 5663 5664 5663 5663 5663 5664 5664 5665 5666 5667 5669 5669 5669 5669 5670 5670
5606 5601 5603 5612 5622 5626 5644 5651 5654 5649 5658 5664 5662 5642 5638 5647 5649 5648 5648 5650 5653 5656 5657 5655 5655 5654 5654 5654 5655 5655 5655 5656 5656 5657 5657 5657 5657 5657 5656 5657 5657 5658 5658 5659 5661 5662 5662 5663 5664
5606 5590 5602 5621 5618 5633 5637 5644 5652 5654 5654 5653 5655 5651 5656 5652 5644 5641 5640 5642 5645 5646 5647 5648 5648 5647 5648 5648 5648 5649 5649 5649 5650 5650 5650 5651 5651 5651 5651 5652 5652 5652 5653 5652 5653 5654 5656 5656 5658
5597 5593 5616 5626 5627 5627 5631 5637 5642 5645 5646 5646 5646 5645 5649 5648 5642 5639 5638 5639 5639 5638 5640 5642 5642 5641 5643 5642 5643 5644 5644 5645 5645 5645 5645 5645 5645 5645 5646 5645 5645 5644 5644 5644 5645 5646 5647 5647 5647
5598 5604 5617 5620 5625 5623 5627 5631 5633 5636 5636 5642 5641 5640 5640 5641 5635 5636 5636 5638 5638 5636 5636 5637 5638 5638 5639 5638 5639 5639 5640 5640 5640 5640 5640 5640 5640 5640 5639 5639 5638 5637 5637 5637 5638 5638 5639 5638 5638
5589 5605 5610 5615 5617 5617 5621 5626 5630 5631 5640 5642 5641 5638 5640 5638 5636 5637 5636 5635 5632 5632 5633 5634 5634 5634 5634 5634 5634 5634 5634 5634 5634 5633 5633 5634 5633 5632 5631 5630 5629 5628 5628 5628 5628 5629 5630 5630 5630
5585 5597 5604 5608 5605 5610 5616 5619 5621 5626 5634 5639 5638 5636 5635 5639 5638 5636 5639 5635 5631 5631 5630 5630 5631 5630 5629 5629 5629 5629 5628 5627 5626 5626 5626 5626 5624 5623 5623 5622 5621 5621 5621 5621 5620 5620 5619 5620 5620
5590 5592 5597 5598 5599 5605 5607 5613 5613 5628 5630 5627 5629 5630 5630 5634 5635 5632 5633 5632 5629 5628 5628 5627 5626 5627 5626 5625 5624 5622 5621 5620 5620 5619 5618 5617 5616 5615 5614 5614 5613 5612 5610 5610 5610 5609 5609 5610 5610
5584 5582 5587 5590 5593 5597 5599 5598 5612 5623 5622 5623 5624 5627 5628 5631 5633 5635 5636 5632 5633 5629 5626 5622 5622 5623 5622 5620 5618 5616 5615 5614 5613 5611 5610 5609 5608 5607 5605 5604 5603 5602 5601 5601 5600 5599 5599 5599 5598
5571 5574 5568 5592 5588 5594 5594 5615 5622 5620 5611 5621 5622 5623 5628 5632 5633 5633 5633 5632 5630 5625 5621 5618 5620 5618 5616 5614 5612 5610 5608 5606 5605 5604 5604 5602 5601 5599 5598 5597 5595 5594 5592 5591 5589 5587 5586 5585 5585
5556 5559 5562 5573 5581 5585 5579 5606 5617 5608 5603 5614 5611 5615 5621 5625 5627 5629 5629 5628 5627 5624 5618 5615 5614 5613 5611 5609 5606 5603 5601 5599 5598 5598 5597 5595 5594 5592 5590 5587 5586 5585 5583 5580 5577 5575 5571 5571 5572
5554 5547 5558 5562 5574 5568 5570 5595 5603 5598 5605 5605 5602 5610 5617 5622 5631 5626 5625 5623 5621 5619 5615 5612 5609 5607 5605 5602 5599 5595 5593 5592 5591 5591 5590 5588 5585 5583 5581 5580 5579 5577 5573 5569 5565 5561 5557 5553 5552
5547 5546 5551 5562 5566 5564 5561 5586 5597 5595 5596 5602 5607 5609 5612 5623 5624 5622 5621 5618 5614 5611 5608 5605 5602 5599 5598 5594 5590 5586 5585 5584 5585 5584 5583 5581 5577 5575 5574 5572 5568 5563 5559 5555 5551 5546 5541 5536 5529
5535 5536 5540 5552 5558 5549 5559 5573 5591 5593 5607 5620 5622 5614 5619 5617 5617 5618 5613 5610 5612 5609 5604 5599 5598 5594 5592 5589 5584 5582 5579 5577 5578 5577 5575 5573 5570 5567 5564 5561 5556 5552 5548 5541 5534 5527 5521 5514 5507
5527 5530 5537 5543 5548 5546 5548 5566 5587 5605 5611 5615 5620 5631 5628 5626 5621 5614 5609 5607 5603 5603 5600 5596 5591 5589 5586 5583 5579 5575 5573 5571 5571 5567 5565 5564 5561 5558 5554 5550 5545 5540 5534 5526 5517 5509 5505 5500 5495
5517 5533 5538 5533 5537 5513 5544 5523 5586 5604 5611 5614 5624 5618 5629 5627 5624 5618 5612 5605 5603 5600 5594 5590 5586 5583 5580 5578 5574 5571 5566 5562 5558 5556 5555 5554 5552 5548 5544 5539 5534 5527 5518 5509 5501 5498 5493 5488 5486
5517 5533 5524 5529 5521 5518 5528 5503 5583 5597 5608 5625 5635 5623 5624 5626 5625 5620 5614 5607 5599 5594 5589 5583 5580 5576 5573 5571 5569 5564 5560 5556 5552 5549 5547 5544 5541 5537 5533 5528 5522 5514 5506 5498 5493 5488 5483 5479 5476
5516 5517 5506 5493 5494 5440 5520 5516 5580 5592 5618 5633 5637 5624 5619 5616 5621 5618 5609 5600 5589 5584 5580 5576 5573 5570 5567 5564 5562 5559 5556 5550 5546 5542 5538 5536 5532 5528 5524 5519 5511 5503 5496 5490 5485 5480 5476 5472 5469
5507 5507 5477 5451 5428 5464 5511 5513 5569 5607 5617 5624 5629 5627 5611 5609 5614 5610 5599 5593 5583 5578 5573 5570 5568 5563 5561 5558 5555 5552 5549 5545 5540 5535 5532 5528 5524 5520 5514 5505 5498 5493 5488 5483 5479 5474 5471 5467 5461
5490 5504 5473 5458 5452 5483 5500 5506 5562 5607 5611 5617 5618 5619 5606 5600 5607 5606 5599 5592 5583 5576 5569 5566 5561 5558 5554 5552 5548 5546 5543 5539 5534 5530 5526 5521 5516 5509 5502 5495 5490 5486 5482 5477 5474 5471 5467 5463 5458
5480 5475 5503 5460 5395 5437 5504 5533 5562 5598 5602 5608 5607 5599 5598 5595 5597 5596 5591 5586 5578 5571 5567 5563 5557 5552 5549 5547 5543 5539 5537 5533 5528 5524 5520 5514 5508 5502 5495 5488 5485 5481 5477 5473 5470 5466 5462 5459 5455
5468 5483 5479 5445 5441 5429 5486 5507 5558 5593 5609 5605 5602 5596 5589 5586 5586 5586 5583 5578 5574 5569 5562 5556 5551 5548 5545 5540 5538 5534 5530 5527 5523 5518 5513 5508 5502 5495 5487 5483 5480 5477 5474 5470 5466 5464 5461 5457 5454
5452 5436 5455 5471 5452 5434 5438 5516 5549 5585 5586 5593 5591 5587 5582 5577 5577 5577 5574 5570 5567 5559 5554 5548 5542 5540 5536 5534 5532 5527 5523 5521 5517 5513 5509 5503 5496 5487 5482 5479 5476 5474 5472 5469 5466 5462 5458 5455 5453
5465 5461 5465 5468 5453 5449 5441 5523 5555 5565 5566 5573 5579 5578 5574 5570 5570 5568 5564 5559 5555 5552 5546 5540 5535 5534 5531 5529 5526 5522 5518 5515 5511 5508 5504 5498 5490 5483 5479 5476 5474 5473 5471 5468 5465 5461 5459 5458 5455